1514606400.65,40224,4.69,72140.5,-16.91,-17.79,-17.63,0,*64
1514606401.91,40225,4.69,72142.3,-16.89,-17.63,-17.63,0,*67
1514606403.16,40226,4.69,72138.3,-16.91,-17.69,-17.69,0,*6D
1514606404.4,40227,4.69,72140.3,-16.91,-17.69,-17.69,0,*6C
1514606405.69,40228,4.69,72138.5,-16.91,-17.79,-17.79,0,*63
1514606406.96,40229,4.69,72140.3,-16.91,-17.69,-17.79,0,*63
1514606408.2,40230,4.69,72140.8,-16.91,-17.69,-17.69,0,*6A
1514606409.45,40231,4.69,72138.8,-16.91,-17.83,-17.83,0,*6B
1514606410.7,40232,4.69,72138.3,-16.95,-17.73,-17.87,0,*67
1514606411.95,40233,4.69,72138.0,-16.95,-17.83,-17.73,0,*62
1514606413.24,40234,4.69,72136.0,-16.91,-17.79,-17.79,0,*6E
1514606414.49,40235,4.69,72138.8,-16.95,-17.83,-17.83,0,*6B
1514606415.74,40236,4.69,72136.8,-16.95,-17.87,-17.83,0,*6C
1514606416.99,40237,4.69,72126.8,-16.95,-17.87,-17.83,0,*6D
1514606418.24,40238,4.69,72120.0,-16.91,-17.83,-17.69,0,*66
1514606419.49,40239,4.69,72124.5,-16.91,-17.83,-17.69,0,*67
1514606420.78,40240,4.69,72130.5,-16.91,-17.79,-17.79,0,*6D
1514606422.05,40241,4.69,72130.5,-16.91,-17.83,-17.79,0,*69
1514606423.34,40242,4.69,72132.8,-16.91,-17.79,-17.63,0,*64
1514606424.63,40243,4.69,72130.0,-16.91,-17.79,-17.79,0,*6E
1514606425.88,40244,4.69,72134.0,-16.95,-17.87,-17.83,0,*69
1514606427.13,40245,4.69,72132.3,-16.95,-17.83,-17.83,0,*6C
1514606428.38,40246,4.69,72130.0,-16.95,-17.83,-17.83,0,*6F
1514606429.63,40247,4.69,72128.3,-16.95,-17.87,-17.73,0,*65
1514606430.88,40248,4.69,72126.3,-16.95,-17.83,-17.83,0,*61
1514606432.13,40249,4.69,72130.0,-16.95,-17.83,-17.83,0,*60
1514606433.36,40250,4.69,72132.0,-16.97,-17.87,-17.83,0,*6E
1514606434.61,40251,4.69,72134.0,-16.95,-17.83,-17.83,0,*69
1514606435.83,40252,4.69,72128.0,-16.97,-17.83,-17.83,0,*68
1514606437.09,40253,4.69,72128.3,-16.95,-17.87,-17.83,0,*6F
1514606438.31,40254,4.69,72126.3,-16.97,-17.83,-17.87,0,*6A
1514606439.56,40255,4.69,72126.0,-16.95,-17.83,-17.83,0,*6D
1514606440.81,40256,4.69,72126.3,-16.95,-17.83,-17.83,0,*6E
1514606442.07,40257,4.69,72128.5,-16.95,-17.83,-17.83,0,*6F
1514606443.32,40258,4.69,72130.5,-16.95,-17.83,-17.87,0,*64
1514606444.54,40259,4.69,72126.8,-16.97,-17.87,-17.73,0,*68
1514606445.76,40260,4.69,72126.8,-16.97,-17.87,-17.83,0,*6D
1514606446.99,40261,4.69,72122.3,-16.97,-17.87,-17.83,0,*6C
1514606448.24,40262,4.69,72126.8,-16.95,-17.83,-17.83,0,*69
1514606449.49,40263,4.69,72122.3,-16.95,-17.87,-17.83,0,*6C
1514606450.74,40264,4.69,72124.5,-16.95,-17.83,-17.73,0,*60
1514606451.99,40265,4.69,72128.8,-16.95,-17.83,-17.83,0,*6E
1514606453.21,40266,4.69,72126.0,-16.97,-17.83,-17.83,0,*6F
1514606454.47,40267,4.69,72128.3,-16.95,-17.83,-17.83,0,*6C
1514606455.72,40268,4.69,72122.5,-16.95,-17.87,-17.83,0,*67
1514606456.96,40269,4.69,72132.3,-16.95,-17.73,-17.73,0,*62
1514606458.18,40270,4.69,72138.3,-16.97,-17.73,-17.69,0,*63
1514606459.39,40271,4.69,72136.3,-16.97,-17.83,-17.73,0,*66
1514606460.64,40272,4.69,72136.0,-16.95,-17.83,-17.73,0,*67
1514606461.89,40273,4.69,72138.0,-16.95,-17.87,-17.83,0,*6D
1514606463.13,40274,4.69,72138.8,-16.95,-17.83,-17.73,0,*61
1514606464.38,40275,4.69,72132.3,-16.95,-17.87,-17.73,0,*64
1514606465.6,40276,4.69,72138.5,-16.97,-17.83,-17.69,0,*6A
1514606466.84,40277,4.69,72136.0,-16.95,-17.73,-17.73,0,*6D
1514606468.08,40278,4.69,72132.5,-16.95,-17.73,-17.73,0,*62
1514606469.31,40279,4.69,72132.0,-16.97,-17.83,-17.83,0,*61
1514606470.53,40280,4.69,72132.0,-16.97,-17.83,-17.73,0,*68
1514606471.77,40281,4.69,72134.3,-16.95,-17.83,-17.73,0,*6B
1514606472.99,40282,4.69,72134.8,-16.97,-17.83,-17.73,0,*6A
1514606474.23,40283,4.69,72136.3,-16.95,-17.83,-17.73,0,*69
1514606475.48,40284,4.69,72130.8,-16.95,-17.83,-17.73,0,*6E
1514606476.7,40285,4.69,72130.8,-16.97,-17.87,-17.73,0,*69
1514606477.95,40286,4.69,72128.8,-16.95,-17.83,-17.83,0,*63
1514606479.2,40287,4.69,72134.0,-16.95,-17.87,-17.69,0,*62
1514606480.44,40288,4.69,72132.5,-16.95,-17.83,-17.73,0,*62
1514606481.66,40289,4.69,72138.0,-16.97,-17.83,-17.73,0,*61
1514606482.9,40290,4.69,72134.8,-16.95,-17.87,-17.73,0,*6F
1514606484.15,40291,4.69,72132.5,-16.95,-17.83,-17.73,0,*6A
1514606485.37,40292,4.69,72132.5,-16.97,-17.83,-17.83,0,*64
1514606486.63,40293,4.69,72134.0,-16.95,-17.83,-17.83,0,*67
1514606487.87,40294,4.69,72134.8,-16.95,-17.87,-17.73,0,*6B
1514606489.11,40295,4.69,72132.8,-16.95,-17.87,-17.73,0,*6A
1514606490.36,40296,4.69,72132.3,-16.95,-17.83,-17.73,0,*6D
1514606491.6,40297,4.69,72130.8,-16.95,-17.87,-17.73,0,*68
1514606492.85,40298,4.69,72124.8,-16.95,-17.73,-17.87,0,*67
1514606494.1,40299,4.69,72124.3,-16.95,-17.83,-17.83,0,*6D
1514606495.33,40300,4.69,72122.5,-16.97,-17.73,-17.83,0,*61
1514606496.54,40301,4.69,72120.5,-16.97,-17.83,-17.73,0,*60
1514606497.76,40302,4.69,72122.0,-16.97,-17.83,-17.73,0,*63
1514606498.98,40303,4.69,72128.3,-16.97,-17.87,-17.73,0,*66
1514606500.23,40304,4.69,72128.3,-16.95,-17.87,-17.83,0,*6C
1514606501.48,40305,4.69,72130.3,-16.95,-17.87,-17.73,0,*62
1514606502.7,40306,4.69,72130.8,-16.97,-17.87,-17.87,0,*68
1514606503.95,40307,4.69,72122.8,-16.95,-17.83,-17.83,0,*6B
1514606505.18,40308,4.69,72126.5,-16.97,-17.87,-17.87,0,*66
1514606506.4,40309,4.69,72128.0,-16.97,-17.83,-17.83,0,*67
1514606507.63,40310,4.69,72130.8,-16.97,-17.83,-17.83,0,*6F
1514606508.85,40311,4.69,72130.8,-16.97,-17.87,-17.73,0,*65
1514606510.09,40312,4.69,72130.3,-16.95,-17.83,-17.73,0,*60
1514606511.31,40313,4.69,72134.0,-16.97,-17.87,-17.73,0,*67
1514606512.54,40314,4.69,72128.0,-16.97,-17.83,-17.83,0,*6B
1514606513.76,40315,4.69,72130.5,-16.97,-17.87,-17.83,0,*6E
1514606514.99,40316,4.69,72130.0,-16.97,-17.83,-17.83,0,*69
1514606516.21,40317,4.69,72128.3,-16.97,-17.83,-17.83,0,*68
1514606517.43,40318,4.69,72128.0,-16.97,-17.83,-17.73,0,*68
1514606518.65,40319,4.69,72128.3,-16.97,-17.83,-17.69,0,*62
1514606519.87,40320,4.69,72128.5,-16.97,-17.83,-17.73,0,*63
1514606521.09,40321,4.69,72130.3,-16.97,-17.83,-17.83,0,*6D
1514606522.31,40322,4.69,72128.0,-16.97,-17.73,-17.73,0,*6E
1514606523.52,40323,4.69,72128.3,-16.97,-17.73,-17.73,0,*6F
1514606524.75,40324,4.69,72124.8,-16.97,-17.83,-17.69,0,*6C
1514606525.96,40325,4.69,72120.5,-16.97,-17.73,-17.69,0,*62
1514606527.18,40326,4.69,72118.0,-16.97,-17.73,-17.73,0,*6A
1514606528.39,40327,4.69,72120.3,-16.97,-17.73,-17.73,0,*6B
1514606529.61,40328,4.69,72126.5,-16.97,-17.83,-17.73,0,*6B
1514606530.82,40329,4.69,72132.3,-16.97,-17.73,-17.73,0,*65
1514606532.04,40330,4.69,72130.3,-16.97,-17.69,-17.73,0,*66
1514606533.25,40331,4.69,72126.3,-16.97,-17.73,-17.73,0,*6C
1514606534.5,40332,4.69,72118.3,-16.99,-17.73,-17.73,0,*61
1514606535.72,40333,4.69,72122.5,-16.97,-17.83,-17.73,0,*61
1514606536.93,40334,4.69,72130.0,-16.97,-17.87,-17.73,0,*62
1514606538.16,40335,4.69,72134.0,-16.97,-17.83,-17.69,0,*6C
1514606539.37,40336,4.69,72134.5,-16.97,-17.73,-17.69,0,*60
1514606540.59,40337,4.69,72136.5,-16.97,-17.73,-17.69,0,*61
1514606541.82,40338,4.69,72132.8,-16.97,-17.83,-17.83,0,*65
1514606543.03,40339,4.69,72134.0,-16.97,-17.83,-17.73,0,*6B
1514606544.25,40340,4.69,72132.8,-16.97,-17.73,-17.69,0,*61
1514606545.47,40341,4.69,72134.3,-16.97,-17.69,-17.73,0,*60
1514606546.68,40342,4.69,72128.3,-16.97,-17.73,-17.69,0,*63
1514606547.93,40343,4.69,72126.5,-16.95,-17.73,-17.73,0,*6B
1514606549.14,40344,4.69,72132.0,-16.97,-17.69,-17.69,0,*6E
1514606550.36,40345,4.69,72132.0,-16.97,-17.73,-17.73,0,*6F
1514606551.57,40346,4.69,72130.3,-16.97,-17.73,-17.73,0,*6C
1514606552.79,40347,4.69,72130.0,-16.97,-17.73,-17.83,0,*62
1514606554.01,40348,4.69,72128.3,-16.97,-17.83,-17.73,0,*6D
1514606555.23,40349,4.69,72130.8,-16.97,-17.83,-17.73,0,*6C
1514606556.45,40350,4.69,72126.3,-16.97,-17.83,-17.73,0,*64
1514606557.7,40351,4.69,72124.5,-16.95,-17.73,-17.83,0,*67
1514606558.92,40352,4.69,72132.3,-16.97,-17.83,-17.73,0,*66
1514606560.14,40353,4.69,72130.3,-16.97,-17.83,-17.83,0,*68
1514606561.36,40354,4.69,72128.8,-16.97,-17.73,-17.73,0,*6F
1514606562.57,40355,4.69,72134.0,-16.97,-17.83,-17.73,0,*61
1514606563.8,40356,4.69,72130.8,-16.97,-17.83,-17.83,0,*6D
1514606565.02,40357,4.69,72126.3,-16.97,-17.83,-17.73,0,*63
1514606566.24,40358,4.69,72124.5,-16.97,-17.83,-17.83,0,*63
1514606567.47,40359,4.69,72130.0,-16.97,-17.73,-17.83,0,*6D
1514606568.68,40360,4.69,72128.8,-16.97,-17.83,-17.73,0,*67
1514606569.93,40361,4.69,72126.3,-16.95,-17.83,-17.73,0,*64
1514606571.17,40362,4.69,72134.5,-16.95,-17.87,-17.73,0,*63
1514606572.39,40363,4.69,72136.0,-16.97,-17.87,-17.73,0,*60
1514606573.64,40364,4.69,72136.0,-16.95,-17.83,-17.73,0,*61
1514606574.85,40365,4.69,72138.3,-16.97,-17.83,-17.73,0,*62
1514606576.07,40366,4.69,72138.3,-16.97,-17.83,-17.73,0,*61
1514606577.29,40367,4.69,72142.8,-16.97,-17.83,-17.73,0,*60
1514606578.51,40368,4.69,72142.8,-16.97,-17.83,-17.69,0,*64
1514606579.73,40369,4.69,72140.0,-16.97,-17.87,-17.73,0,*6A
1514606580.97,40370,4.69,72142.8,-16.95,-17.83,-17.73,0,*64
1514606582.19,40371,4.69,72140.3,-16.97,-17.83,-17.73,0,*67
1514606583.41,40372,4.69,72136.0,-16.97,-17.83,-17.69,0,*6F
1514606584.63,40373,4.69,72142.3,-16.97,-17.83,-17.73,0,*65
1514606585.88,40374,4.69,72138.3,-16.95,-17.87,-17.73,0,*64
1514606587.09,40375,4.69,72136.5,-16.97,-17.83,-17.73,0,*63
1514606588.31,40376,4.69,72138.0,-16.97,-17.87,-17.73,0,*64
1514606589.53,40377,4.69,72142.3,-16.97,-17.73,-17.73,0,*6E
1514606590.77,40378,4.69,72138.5,-16.95,-17.73,-17.73,0,*63
1514606591.98,40379,4.69,72140.3,-16.97,-17.73,-17.73,0,*60
1514606593.2,40380,4.69,72142.3,-16.97,-17.73,-17.69,0,*6D
1514606594.42,40381,4.69,72138.5,-16.97,-17.73,-17.73,0,*67
1514606595.63,40382,4.69,72136.0,-16.97,-17.69,-17.73,0,*6F
1514606596.85,40383,4.69,72132.5,-16.97,-17.73,-17.73,0,*65
1514606598.06,40384,4.69,72130.3,-16.97,-17.73,-17.73,0,*62
1514606599.27,40385,4.69,72126.8,-16.97,-17.73,-17.73,0,*63
1514606600.49,40386,4.69,72136.8,-16.97,-17.73,-17.73,0,*60
1514606601.7,40387,4.69,72132.0,-16.97,-17.73,-17.73,0,*61
1514606602.92,40388,4.69,72132.3,-16.97,-17.73,-17.73,0,*6E
1514606604.13,40389,4.69,72130.5,-16.97,-17.73,-17.73,0,*6F
1514606605.38,40390,4.69,72134.3,-16.95,-17.73,-17.69,0,*6E
1514606606.6,40391,4.69,72132.0,-16.97,-17.83,-17.69,0,*62
1514606607.82,40392,4.69,72134.3,-16.97,-17.73,-17.69,0,*6E
1514606609.03,40393,4.69,72132.8,-16.97,-17.73,-17.73,0,*64
1514606610.25,40394,4.69,72134.5,-16.97,-17.83,-17.73,0,*6C
1514606611.47,40395,4.69,72134.8,-16.97,-17.83,-17.73,0,*6D
1514606612.68,40396,4.69,72134.3,-16.97,-17.83,-17.73,0,*6E
1514606613.91,40397,4.69,72132.8,-16.97,-17.83,-17.83,0,*60
1514606615.13,40398,4.69,72134.5,-16.97,-17.87,-17.73,0,*64
1514606616.35,40399,4.69,72134.3,-16.97,-17.83,-17.83,0,*6E
1514606617.57,40400,4.69,72132.8,-16.97,-17.83,-17.73,0,*66
1514606618.82,40401,4.69,72134.5,-16.95,-17.83,-17.73,0,*65
1514606620.04,40402,4.69,72134.8,-16.97,-17.83,-17.73,0,*64
1514606621.26,40403,4.69,72128.5,-16.97,-17.83,-17.83,0,*6A
1514606622.48,40404,4.69,72132.5,-16.97,-17.83,-17.73,0,*62
1514606623.7,40405,4.69,72134.5,-16.97,-17.87,-17.73,0,*67
1514606624.92,40406,4.69,72132.5,-16.97,-17.87,-17.73,0,*64
1514606626.14,40407,4.69,72134.8,-16.97,-17.87,-17.83,0,*6A
1514606627.39,40408,4.69,72130.0,-16.95,-17.83,-17.83,0,*63
1514606628.65,40409,4.69,72132.5,-16.99,-17.83,-17.83,0,*6E
1514606629.9,40410,4.69,72134.8,-16.99,-17.83,-17.83,0,*66
1514606631.12,40411,4.69,72134.5,-16.97,-17.83,-17.73,0,*66
1514606632.38,40412,4.69,72136.5,-16.99,-17.83,-17.83,0,*64
1514606633.6,40413,4.69,72140.3,-16.97,-17.83,-17.73,0,*64
1514606634.82,40414,4.69,72136.3,-16.97,-17.73,-17.83,0,*63
1514606636.03,40415,4.69,72134.8,-16.97,-17.73,-17.73,0,*6D
1514606637.25,40416,4.69,72140.5,-16.97,-17.83,-17.73,0,*61
1514606638.46,40417,4.69,72138.3,-16.97,-17.73,-17.73,0,*6F
1514606639.68,40418,4.69,72136.0,-16.97,-17.83,-17.73,0,*6F
1514606640.9,40419,4.69,72136.3,-16.97,-17.83,-17.69,0,*65
1514606642.15,40420,4.69,72136.3,-16.99,-17.73,-17.73,0,*65
1514606643.4,40421,4.69,72138.3,-16.99,-17.73,-17.69,0,*6F
1514606644.61,40422,4.69,72138.8,-16.97,-17.73,-17.73,0,*69
1514606645.85,40423,4.69,72132.0,-16.99,-17.73,-17.73,0,*66
1514606647.08,40424,4.69,72134.5,-16.97,-17.83,-17.83,0,*6F
1514606648.3,40425,4.69,72130.3,-16.97,-17.73,-17.69,0,*65
1514606649.51,40426,4.69,72132.0,-16.97,-17.73,-17.73,0,*6D
1514606650.76,40427,4.69,72128.3,-16.99,-17.73,-17.73,0,*62
1514606652.0,40428,4.69,72128.0,-16.99,-17.83,-17.73,0,*62
1514606653.25,40429,4.69,72126.0,-16.99,-17.73,-17.69,0,*67
1514606654.49,40430,4.69,72118.5,-16.99,-17.73,-17.73,0,*64
1514606655.74,40431,4.69,72122.8,-16.99,-17.73,-17.73,0,*65
1514606656.99,40432,4.69,72122.5,-16.99,-17.69,-17.83,0,*62
1514606658.23,40433,4.69,72122.3,-16.99,-17.73,-17.73,0,*67
1514606659.49,40434,4.69,72130.8,-16.99,-17.73,-17.83,0,*6F
1514606660.73,40435,4.69,72124.0,-16.95,-17.73,-17.73,0,*6D
1514606661.94,40436,4.69,72126.0,-16.97,-17.73,-17.73,0,*6C
1514606663.19,40437,4.69,72126.5,-16.99,-17.69,-17.73,0,*68
1514606664.43,40438,4.69,72130.5,-16.99,-17.83,-17.73,0,*63
1514606665.68,40439,4.69,72130.0,-16.99,-17.83,-17.73,0,*62
1514606666.93,40440,4.69,72132.0,-16.99,-17.69,-17.73,0,*68
1514606668.14,40441,4.69,72134.5,-16.97,-17.73,-17.73,0,*6C
1514606669.38,40442,4.69,72132.0,-16.99,-17.73,-17.73,0,*61
1514606670.64,40443,4.69,72128.0,-16.99,-17.83,-17.69,0,*64
1514606671.85,40444,4.69,72130.3,-16.97,-17.69,-17.69,0,*69
1514606673.07,40445,4.69,72128.3,-16.97,-17.73,-17.73,0,*68
1514606674.28,40446,4.69,72124.5,-16.97,-17.73,-17.73,0,*6B
1514606675.5,40447,4.69,72124.0,-16.97,-17.83,-17.73,0,*65
1514606676.72,40448,4.69,72126.5,-16.97,-17.83,-17.69,0,*61
1514606677.96,40449,4.69,72130.5,-16.95,-17.73,-17.73,0,*66
1514606679.18,40450,4.69,72128.5,-16.97,-17.69,-17.69,0,*6C
1514606680.43,40451,4.69,72130.3,-16.99,-17.73,-17.73,0,*63
1514606681.64,40452,4.69,72130.0,-16.97,-17.73,-17.69,0,*65
1514606682.86,40453,4.69,72134.3,-16.97,-17.73,-17.69,0,*64
1514606684.08,40454,4.69,72132.3,-16.97,-17.83,-17.73,0,*67
1514606685.29,40455,4.69,72132.8,-16.97,-17.73,-17.73,0,*69
1514606686.51,40456,4.69,72134.8,-16.97,-17.83,-17.73,0,*65
1514606687.73,40457,4.69,72136.8,-16.97,-17.87,-17.73,0,*60
1514606688.95,40458,4.69,72132.8,-16.97,-17.83,-17.73,0,*6B
1514606690.16,40459,4.69,72134.8,-16.97,-17.73,-17.73,0,*65
1514606691.38,40460,4.69,72136.5,-16.97,-17.73,-17.69,0,*64
1514606692.6,40461,4.69,72132.5,-16.97,-17.87,-17.69,0,*6E
1514606693.82,40462,4.69,72132.3,-16.97,-17.83,-17.69,0,*69
1514606695.07,40463,4.69,72134.0,-16.99,-17.83,-17.69,0,*66
1514606696.29,40464,4.69,72136.0,-16.97,-17.73,-17.73,0,*6B
1514606697.54,40465,4.69,72138.0,-16.99,-17.83,-17.73,0,*6B
1514606698.78,40466,4.69,72138.5,-16.95,-17.83,-17.73,0,*64
1514606700.0,40467,4.69,72134.3,-16.97,-17.83,-17.73,0,*67
1514606701.22,40468,4.69,72134.8,-16.97,-17.83,-17.83,0,*67
1514606702.45,40469,4.69,72128.3,-16.97,-17.83,-17.83,0,*66
1514606703.67,40470,4.69,72126.5,-16.97,-17.87,-17.83,0,*6A
1514606704.89,40471,4.69,72130.3,-16.97,-17.83,-17.73,0,*60
1514606706.12,40472,4.69,72130.0,-16.97,-17.87,-17.83,0,*68
1514606707.34,40473,4.69,72130.3,-16.97,-17.83,-17.73,0,*62
1514606708.56,40474,4.69,72132.8,-16.97,-17.83,-17.83,0,*6A
1514606709.79,40475,4.69,72132.8,-16.97,-17.83,-17.83,0,*6B
1514606711.01,40476,4.69,72136.3,-16.97,-17.83,-17.87,0,*6C
1514606712.23,40477,4.69,72134.5,-16.97,-17.83,-17.73,0,*66
1514606713.45,40478,4.69,72134.8,-16.97,-17.87,-17.73,0,*6D
1514606714.67,40479,4.69,72134.0,-16.97,-17.83,-17.73,0,*68
1514606715.89,40480,4.69,72132.3,-16.97,-17.83,-17.69,0,*65
1514606717.1,40481,4.69,72132.5,-16.97,-17.73,-17.73,0,*60
1514606718.32,40482,4.69,72136.8,-16.97,-17.83,-17.73,0,*6C
1514606719.57,40483,4.69,72134.8,-16.99,-17.83,-17.73,0,*63
1514606720.82,40484,4.69,72136.0,-16.99,-17.83,-17.73,0,*64
1514606722.04,40485,4.69,72134.5,-16.97,-17.83,-17.87,0,*60
1514606723.3,40486,4.69,72136.0,-16.99,-17.87,-17.83,0,*6D
1514606724.55,40487,4.69,72134.0,-16.99,-17.83,-17.83,0,*68
1514606725.8,40488,4.69,72138.5,-16.99,-17.83,-17.73,0,*68
1514606727.05,40489,4.69,72132.3,-16.99,-17.83,-17.83,0,*66
1514606728.3,40490,4.69,72132.3,-16.99,-17.87,-17.73,0,*65
1514606729.55,40491,4.69,72132.5,-16.99,-17.87,-17.73,0,*64
1514606730.77,40492,4.69,72132.0,-17.01,-17.87,-17.69,0,*6C
1514606732.02,40493,4.69,72134.3,-16.99,-17.87,-17.83,0,*69
1514606733.28,40494,4.69,72134.0,-16.99,-17.87,-17.83,0,*6E
1514606734.5,40495,4.69,72130.3,-17.01,-17.87,-17.87,0,*6B
1514606735.76,40496,4.69,72128.8,-16.99,-17.83,-17.83,0,*68
1514606737.0,40497,4.69,72128.0,-16.99,-17.83,-17.73,0,*66
1514606738.26,40498,4.69,72132.5,-16.99,-17.83,-17.83,0,*66
1514606739.52,40499,4.69,72130.3,-16.99,-17.87,-17.83,0,*63
1514606740.76,40500,4.69,72132.8,-16.99,-17.73,-17.73,0,*66
1514606742.0,40501,4.69,72134.5,-17.01,-17.79,-17.87,0,*66
1514606743.27,40502,4.69,72140.3,-17.01,-17.79,-17.79,0,*64
1514606744.51,40503,4.69,72140.5,-16.99,-17.73,-17.73,0,*65
1514606745.76,40504,4.69,72136.3,-16.99,-17.83,-17.73,0,*6D
1514606747.0,40505,4.69,72136.8,-16.99,-17.73,-17.73,0,*63
1514606748.25,40506,4.69,72134.3,-16.99,-17.73,-17.83,0,*6F
1514606749.53,40507,4.69,72138.5,-16.99,-17.83,-17.79,0,*64
1514606750.78,40508,4.69,72132.0,-16.99,-17.83,-17.83,0,*6E
1514606752.04,40509,4.69,72136.3,-16.99,-17.83,-17.83,0,*6F
1514606753.26,40510,4.69,72136.5,-16.97,-17.83,-17.83,0,*69
1514606754.52,40511,4.69,72138.3,-16.99,-17.87,-17.83,0,*62
1514606755.77,40512,4.69,72138.3,-16.99,-17.83,-17.69,0,*61
1514606757.02,40513,4.69,72138.5,-16.99,-17.83,-17.73,0,*6B
1514606758.24,40514,4.69,72132.8,-17.01,-17.83,-17.83,0,*63
1514606759.5,40515,4.69,72132.3,-16.99,-17.83,-17.83,0,*62
1514606760.75,40516,4.69,72132.5,-16.99,-17.83,-17.83,0,*61
1514606761.99,40517,4.69,72136.0,-17.01,-17.87,-17.93,0,*65
1514606763.22,40518,4.69,72130.0,-17.01,-17.87,-17.87,0,*6F
1514606764.47,40519,4.69,72130.8,-16.99,-17.83,-17.83,0,*6E
1514606765.73,40520,4.69,72126.5,-16.99,-17.83,-17.83,0,*64
1514606766.98,40521,4.69,72122.0,-16.99,-17.87,-17.83,0,*61
1514606768.21,40522,4.69,72118.0,-17.01,-17.83,-17.83,0,*66
1514606769.46,40523,4.69,72118.8,-16.99,-17.83,-17.73,0,*68
1514606770.7,40524,4.69,72116.0,-16.99,-17.83,-17.73,0,*6F
1514606771.95,40525,4.69,72120.3,-16.99,-17.73,-17.73,0,*61
1514606773.2,40526,4.69,72120.0,-16.99,-17.83,-17.69,0,*66
1514606774.45,40527,4.69,72124.5,-16.99,-17.73,-17.69,0,*68
1514606775.69,40528,4.69,72126.5,-16.99,-17.73,-17.69,0,*67
1514606776.94,40529,4.69,72124.8,-16.99,-17.73,-17.69,0,*66
1514606778.18,40530,4.69,72122.8,-16.99,-17.73,-17.73,0,*65
1514606779.42,40531,4.69,72124.8,-17.01,-17.79,-17.73,0,*6E
1514606780.67,40532,4.69,72124.3,-16.99,-17.73,-17.73,0,*67
1514606781.91,40533,4.69,72118.3,-16.99,-17.69,-17.73,0,*6D
1514606783.15,40534,4.69,72118.3,-17.01,-17.79,-17.73,0,*6B
1514606784.39,40535,4.69,72122.5,-16.99,-17.69,-17.69,0,*60
1514606785.64,40536,4.69,72124.0,-16.99,-17.73,-17.69,0,*68
1514606786.86,40537,4.69,72126.5,-17.01,-17.87,-17.73,0,*69
1514606788.07,40538,4.69,72134.5,-17.01,-17.73,-17.73,0,*6D
1514606789.32,40539,4.69,72134.3,-16.99,-17.73,-17.73,0,*6C
1514606790.56,40540,4.69,72134.0,-16.99,-17.69,-17.69,0,*62
1514606791.81,40541,4.69,72130.0,-16.99,-17.69,-17.69,0,*63
1514606793.06,40542,4.69,72130.0,-16.99,-17.73,-17.69,0,*6B
1514606794.3,40543,4.69,72130.5,-17.01,-17.79,-17.73,0,*6B
1514606795.53,40544,4.69,72120.5,-17.01,-17.79,-17.73,0,*6C
1514606796.81,40545,4.69,72120.8,-16.99,-17.73,-17.59,0,*6F
1514606798.05,40546,4.69,72126.0,-16.99,-17.73,-17.73,0,*64
1514606799.29,40547,4.69,72124.8,-16.99,-17.73,-17.73,0,*65
1514606800.54,40548,4.69,72128.5,-16.99,-17.73,-17.69,0,*61
1514606801.76,40549,4.69,72126.8,-17.01,-17.73,-17.73,0,*6B
1514606803.0,40550,4.69,72126.5,-16.99,-17.69,-17.69,0,*63
1514606804.25,40551,4.69,72124.5,-16.99,-17.73,-17.69,0,*69
1514606805.5,40552,4.69,72126.3,-16.99,-17.69,-17.69,0,*61
1514606806.74,40553,4.69,72128.8,-16.99,-17.73,-17.69,0,*6B
1514606807.99,40554,4.69,72128.0,-16.99,-17.69,-17.69,0,*67
1514606809.23,40555,4.69,72130.3,-16.99,-17.69,-17.73,0,*6D
1514606810.48,40556,4.69,72130.0,-16.99,-17.73,-17.73,0,*65
1514606811.73,40557,4.69,72132.5,-16.99,-17.73,-17.69,0,*6F
1514606812.97,40558,4.69,72128.0,-16.99,-17.69,-17.69,0,*6B
1514606814.22,40559,4.69,72134.5,-16.99,-17.69,-17.69,0,*6A
1514606815.47,40560,4.69,72128.3,-16.99,-17.69,-17.73,0,*6B
1514606816.68,40561,4.69,72130.3,-16.97,-17.73,-17.69,0,*64
1514606817.9,40562,4.69,72134.5,-16.97,-17.69,-17.73,0,*67
1514606819.14,40563,4.69,72132.0,-16.97,-17.69,-17.59,0,*6E
1514606820.36,40564,4.69,72128.3,-16.97,-17.73,-17.73,0,*6A
1514606821.6,40565,4.69,72132.8,-16.99,-17.73,-17.69,0,*6E
1514606822.87,40566,4.69,72132.0,-16.99,-17.69,-17.55,0,*69
1514606824.09,40567,4.69,72134.3,-17.01,-17.69,-17.69,0,*67
1514606825.34,40568,4.69,72134.3,-16.99,-17.69,-17.69,0,*68
1514606826.61,40569,4.69,72134.3,-16.99,-17.69,-17.59,0,*6A
1514606827.86,40570,4.69,72134.3,-16.99,-17.69,-17.69,0,*61
1514606829.11,40571,4.69,72134.3,-16.99,-17.69,-17.69,0,*60
1514606830.38,40572,4.69,72130.3,-16.99,-17.69,-17.59,0,*60
1514606831.6,40573,4.69,72132.0,-16.97,-17.73,-17.69,0,*67
1514606832.84,40574,4.69,72132.0,-16.97,-17.73,-17.59,0,*63
1514606834.11,40575,4.69,72132.5,-16.99,-17.73,-17.63,0,*65
1514606835.39,40576,4.69,72130.0,-16.99,-17.73,-17.59,0,*6F
1514606836.66,40577,4.69,72128.0,-16.99,-17.69,-17.59,0,*65
1514606837.94,40578,4.69,72132.8,-16.99,-17.69,-17.59,0,*6A
1514606839.21,40579,4.69,72130.0,-16.99,-17.69,-17.59,0,*6B
1514606840.46,40580,4.69,72128.8,-16.99,-17.73,-17.69,0,*65
1514606841.7,40581,4.69,72130.0,-16.99,-17.69,-17.69,0,*6F
1514606842.95,40582,4.69,72130.5,-16.99,-17.73,-17.69,0,*67
1514606844.21,40583,4.69,72128.5,-17.01,-17.79,-17.79,0,*6D
1514606845.43,40584,4.69,72130.5,-16.97,-17.73,-17.69,0,*6F
1514606846.65,40585,4.69,72122.0,-16.97,-17.73,-17.69,0,*6E
1514606847.87,40586,4.69,72122.0,-16.97,-17.69,-17.69,0,*66
1514606849.08,40587,4.69,72124.5,-16.97,-17.69,-17.73,0,*6C
1514606850.3,40588,4.69,72126.8,-16.97,-17.69,-17.69,0,*68
1514606851.52,40589,4.69,72128.0,-16.97,-17.73,-17.69,0,*62
1514606852.73,40590,4.69,72134.0,-16.97,-17.73,-17.73,0,*61
1514606853.95,40591,4.69,72134.3,-16.97,-17.73,-17.69,0,*6B
1514606855.19,40592,4.69,72132.8,-16.99,-17.73,-17.69,0,*66
1514606856.46,40593,4.69,72138.5,-17.01,-17.79,-17.79,0,*6C
1514606857.7,40594,4.69,72134.0,-16.99,-17.73,-17.73,0,*6B
1514606858.95,40595,4.69,72134.0,-16.99,-17.73,-17.69,0,*61
1514606860.2,40596,4.69,72134.3,-16.99,-17.83,-17.69,0,*6D
1514606861.44,40597,4.69,72134.5,-16.99,-17.73,-17.73,0,*68
1514606862.69,40598,4.69,72136.8,-16.99,-17.73,-17.69,0,*6C
1514606863.94,40599,4.69,72138.0,-16.99,-17.73,-17.73,0,*66
1514606865.15,40600,4.69,72134.0,-16.97,-17.73,-17.73,0,*6B
1514606866.37,40601,4.69,72132.3,-16.97,-17.73,-17.73,0,*6A
1514606867.59,40602,4.69,72134.5,-16.97,-17.83,-17.69,0,*6D
1514606868.83,40603,4.69,72134.3,-16.99,-17.73,-17.73,0,*66
1514606870.07,40604,4.69,72134.0,-16.99,-17.73,-17.73,0,*61
1514606871.32,40605,4.69,72132.8,-16.99,-17.69,-17.69,0,*60
1514606872.57,40606,4.69,72138.8,-16.99,-17.73,-17.69,0,*68
1514606873.78,40607,4.69,72134.0,-16.97,-17.69,-17.73,0,*67
1514606875.0,40608,4.69,72138.8,-16.97,-17.73,-17.73,0,*63
1514606876.21,40609,4.69,72134.0,-16.97,-17.73,-17.73,0,*62
1514606877.43,40610,4.69,72136.5,-16.97,-17.73,-17.73,0,*6A
1514606878.64,40611,4.69,72130.8,-16.97,-17.73,-17.69,0,*60
1514606879.89,40612,4.69,72128.8,-16.99,-17.69,-17.69,0,*66
1514606881.14,40613,4.69,72128.3,-16.99,-17.69,-17.73,0,*6C
1514606882.38,40614,4.69,72128.0,-16.99,-17.73,-17.69,0,*6B
1514606883.6,40615,4.69,72124.8,-16.97,-17.73,-17.69,0,*64
1514606884.85,40616,4.69,72126.8,-16.99,-17.73,-17.69,0,*69
1514606886.09,40617,4.69,72130.0,-16.99,-17.73,-17.73,0,*63
1514606887.34,40618,4.69,72126.8,-16.99,-17.73,-17.69,0,*67
1514606888.58,40619,4.69,72130.0,-16.99,-17.69,-17.73,0,*66
1514606889.83,40620,4.69,72128.5,-16.99,-17.69,-17.69,0,*67
1514606891.08,40621,4.69,72126.3,-16.99,-17.73,-17.69,0,*6D
1514606892.32,40622,4.69,72124.8,-16.99,-17.73,-17.69,0,*6E
1514606893.54,40623,4.69,72122.3,-17.01,-17.73,-17.73,0,*64